Simultaneous Nadir Overpasses (SNOs) Predictions

Prediction of SNOs between LANDSAT-8 and METOP-B Satellite Orbit:

Table of predicted SNOs for the next 14.0 days since TLE Epoch: 5/1/2021
Index Date (LANDSAT-8) Time (LANDSAT-8) Lat,Lon (LANDSAT-8) SZA (LANDSAT-8 ) Date (METOP-B) Time (METOP-B) Lat,Lon (METOP-B) SZA (METOP-B ) Distance(km) Time Diff (sec)
1 05/03/2021 16:34:50 81.07, -30.12 67.28 05/03/2021 16:34:48 81.07, -29.96 67.29 2.86 2
2 05/03/2021 17:24:16 -81.09, 137.83 112.69 05/03/2021 17:25:27 -81.10, 137.98 112.64 2.72 71
3 05/06/2021 11:19:39 -81.03,-132.00 113.62 05/06/2021 11:18:35 -81.03,-131.95 113.63 1.00 64
4 05/06/2021 12:09:04 81.05, 36.03 66.44 05/06/2021 12:09:14 81.06, 36.08 66.45 1.06 10
5 05/09/2021 06:53:52 -81.03, -65.50 114.36 05/09/2021 06:53:00 -81.03, -65.52 114.39 0.41 52
6 05/09/2021 07:43:17 81.06, 102.50 65.69 05/09/2021 07:43:39 81.06, 102.47 65.70 0.66 22
7 05/12/2021 02:28:04 -81.03, 0.95 115.08 05/12/2021 02:27:24 -81.03, 0.89 115.10 1.07 40
8 05/12/2021 03:17:29 81.06, 168.94 64.97 05/12/2021 03:18:03 81.06, 168.84 64.97 1.70 34
9 05/14/2021 22:02:16 -81.06, 67.72 115.71 05/14/2021 22:01:48 -81.05, 67.66 115.74 1.44 28



Historial Predications of SNOs between LANDSAT-8 and METOP-B
